Location: Unspecified
(0.0000°N, 0.0000°E)
Time: 18:18:28
(UTC+02:00)

Palapa 6 Rocket - Visible Passes

Search period start: 18 April 2014 00:00
Search period end: 28 April 2014 00:00
Orbit: 486 x 1238 km, 22.7° (Epoch: 16 April)

Date Brightness Start Highest point End Pass type
(mag) Time Alt. Az. Time Alt. Az. Time Alt. Az.
18 Apr 5.1 05:48:14 33° N 05:48:14 33° N 05:52:50 10° NE visible
18 Apr 5.9 07:34:28 10° NW 07:36:40 12° NNW 07:38:44 10° N visible
19 Apr 5.4 05:37:28 28° N 05:37:28 28° N 05:41:30 10° NE visible
19 Apr 6.0 07:23:35 10° NW 07:25:30 11° NNW 07:27:18 10° N visible
20 Apr 5.7 05:26:39 24° N 05:26:39 24° N 05:30:07 10° NE visible
20 Apr 6.1 07:12:42 10° NNW 07:14:19 11° NNW 07:15:52 10° N visible
21 Apr 6.0 05:15:47 21° N 05:15:47 21° N 05:18:42 10° NNE visible
21 Apr 6.2 07:01:48 10° NNW 07:03:08 11° NNW 07:04:26 10° N visible
21 Apr 6.1 21:40:16 10° S 21:40:16 10° S 21:40:16 10° S visible
22 Apr 6.2 05:04:53 18° NNE 05:04:53 18° NNE 05:07:14 10° NNE visible
22 Apr 6.3 06:50:49 10° NNW 06:51:57 10° NNW 06:53:04 10° N visible
22 Apr 6.0 21:28:50 10° S 21:29:35 11° SSE 21:29:35 11° SSE visible
23 Apr 6.4 04:53:57 16° NNE 04:53:57 16° NNE 04:55:43 10° NNE visible
23 Apr 6.4 06:39:42 10° NNW 06:40:46 10° NNW 06:41:48 10° N visible
23 Apr 5.9 21:17:21 10° S 21:18:56 11° SSE 21:18:56 11° SSE visible
24 Apr 6.6 04:42:59 13° NNE 04:42:59 13° NNE 04:44:11 10° NNE visible
24 Apr 6.5 06:28:24 10° NNW 06:29:34 10° N 06:30:43 10° N visible
24 Apr 5.7 21:05:52 10° S 21:07:43 11° SSE 21:08:20 11° SSE visible
25 Apr 6.8 04:32:00 12° NNE 04:32:00 12° NNE 04:32:36 10° NNE visible
25 Apr 6.5 06:16:57 10° NNW 06:18:22 11° N 06:19:45 10° N visible
25 Apr 5.6 20:54:22 10° S 20:56:29 12° SSE 20:57:48 11° SE visible
26 Apr 6.6 06:05:23 10° NNW 06:07:09 11° N 06:08:53 10° N visible
26 Apr 5.5 20:42:53 10° S 20:45:14 13° SSE 20:47:20 11° SE visible
26 Apr 6.1 22:28:57 10° SW 22:29:27 13° SW 22:29:27 13° SW visible
27 Apr 6.6 05:53:45 10° NNW 05:55:55 11° N 05:58:02 10° NNE visible
27 Apr 5.3 20:31:25 10° S 20:33:58 14° SSE 20:36:45 10° SE visible
27 Apr 5.7 22:17:39 10° SW 22:19:04 18° SW 22:19:04 18° SW visible
